sat.trackr.live / text

‹ back to catalog

STARLINK-6275

NORAD 56772 · 2023-078F

PAYLOAD ACTIVE UNKNOWN

§ Identity

Operator
Country
US
Launch date
2023-05-31
Launch site
AFWTR
Launch vehicle
Mass (kg)
RCS (m²)

Purposes: comms

External: N2YO · Heavens-Above · Gunter

§ Orbital elements

Epoch: 2026-09-20T22:00:03.000096Z

Period
95.64 min
Inclination
70.0005°
Eccentricity
0.0004003
Mean motion
15.05568723 rev/d
Perigee alt
547.0 km
Apogee alt
552.5 km
Semi-major
6,927.9 km
B*
3.8276e-3
RAAN
232.1321°
Arg perigee
303.0429°
Mean anomaly
14.9725°
Rev number
566

§ Raw data

STARLINK-62751 56772U 23078F   26263.91670139  .00055602  00000+0  38276-2 0  99972 56772  70.0005 232.1321 0004003 303.0429  14.9725 15.05568723  5660

JSON: /api/v1/satellites/56772 · /tle

For live sub-satellite position, see the globe view (requires WebGL).

§ Visibility from observer

Set your observer location to see the next 7 days of passes ≥ 10°. The values pass through the URL so the page stays shareable.

No JS? Fill the form by hand. The geolocation button needs JavaScript.